| time (UTC) | temp F | wind direction | speed knots | gust knots | rain 1hr in | rain 24hr in | rain mn in | humidity % | barometer mb |
| 20260507094108 | 62 | 360 | 4.3 | 10.4 | 0.00 | 0.00 | 0.00 | 88 | 1013.4 |
| 20260507093619 | 62 | 26 | 7.0 | 10.4 | 0.00 | 0.00 | 0.00 | 87 | 1013.7 |
| 20260507093042 | 62 | 360 | 4.3 | 9.6 | 0.00 | 0.00 | 0.00 | 87 | 1013.7 |
| 20260507092551 | 62 | 337 | 6.1 | 9.6 | 0.00 | 0.00 | 0.00 | 87 | 1013.8 |
| 20260507091612 | 62 | 29 | 3.5 | 7.0 | 0.00 | 0.00 | 0.00 | 87 | 1013.6 |
| 20260507091101 | 62 | 15 | 2.6 | 6.1 | 0.00 | 0.00 | 0.00 | 87 | 1013.3 |
| 20260507090100 | 62 | 14 | 2.6 | 7.0 | 0.00 | 0.00 | 0.00 | 87 | 1013.3 |
| 20260507085613 | 62 | 43 | 1.7 | 8.7 | 0.00 | 0.00 | 0.00 | 87 | 1013.0 |
| 20260507085055 | 62 | 20 | 3.5 | 7.8 | 0.00 | 0.00 | 0.00 | 87 | 1013.1 |
| 20260507084524 | 62 | 31 | 3.5 | 8.7 | 0.00 | 0.00 | 0.00 | 87 | 1012.8 |
| 20260507084027 | 62 | 59 | 4.3 | 8.7 | 0.00 | 0.00 | 0.00 | 87 | 1012.6 |
| 20260507083055 | 62 | 24 | 4.3 | 8.7 | 0.00 | 0.00 | 0.00 | 87 | 1013.0 |
| 20260507082558 | 62 | 60 | 4.3 | 7.8 | 0.00 | 0.00 | 0.00 | 86 | 1012.8 |
| 20260507081619 | 62 | 25 | 5.2 | 8.7 | 0.00 | 0.00 | 0.00 | 86 | 1013.3 |
| 20260507081129 | 62 | 30 | 5.2 | 8.7 | 0.00 | 0.00 | 0.00 | 86 | 1013.4 |
| 20260507080612 | 62 | 28 | 4.3 | 9.6 | 0.00 | 0.00 | 0.00 | 86 | 1013.6 |
| 20260507080040 | 62 | 27 | 4.3 | 9.6 | 0.00 | 0.00 | 0.00 | 86 | 1013.7 |
| 20260507075556 | 62 | 30 | 4.3 | 8.7 | 0.00 | 0.00 | 0.00 | 86 | 1013.2 |
| 20260507074614 | 62 | 26 | 4.3 | 10.4 | 0.00 | 0.00 | 0.00 | 86 | 1013.5 |
| 20260507074106 | 62 | 26 | 5.2 | 11.3 | 0.00 | 0.00 | 0.00 | 86 | 1013.1 |
| 20260507073105 | 62 | 33 | 5.2 | 10.4 | 0.00 | 0.00 | 0.00 | 86 | 1013.4 |
| 20260507072608 | 62 | 54 | 3.5 | 7.8 | 0.00 | 0.00 | 0.00 | 85 | 1013.4 |
| 20260507072054 | 62 | 69 | 3.5 | 8.7 | 0.00 | 0.00 | 0.00 | 85 | 1013.6 |
| 20260507071524 | 62 | 18 | 5.2 | 8.7 | 0.00 | 0.00 | 0.00 | 85 | 1013.9 |
| 20260507071107 | 62 | 32 | 3.5 | 8.7 | 0.00 | 0.00 | 0.00 | 85 | 1013.4 |
| 20260507070618 | 62 | 71 | 4.3 | 10.4 | 0.00 | 0.00 | 0.00 | 85 | 1013.7 |
| 20260507070035 | 62 | 89 | 5.2 | 10.4 | 0.00 | 0.00 | 0.00 | 85 | 1013.4 |
| 20260507065528 | 62 | 49 | 3.5 | 11.3 | 0.00 | 0.00 | 0.00 | 85 | 1013.8 |
| 20260507065037 | 62 | 32 | 6.1 | 11.3 | 0.00 | 0.00 | 0.00 | 85 | 1013.7 |
| 20260507064535 | 62 | 53 | 4.3 | 11.3 | 0.00 | 0.00 | 0.00 | 85 | 1013.5 |
| 20260507064045 | 63 | 324 | 7.0 | 11.3 | 0.00 | 0.00 | 0.00 | 85 | 1013.2 |
| 20260507063526 | 63 | 34 | 4.3 | 11.3 | 0.00 | 0.00 | 0.00 | 85 | 1013.7 |
| 20260507063045 | 63 | 36 | 5.2 | 11.3 | 0.00 | 0.00 | 0.00 | 85 | 1013.7 |
| 20260507062533 | 63 | 42 | 3.5 | 9.6 | 0.00 | 0.00 | 0.00 | 85 | 1014.1 |
| 20260507062043 | 63 | 360 | 5.2 | 9.6 | 0.00 | 0.00 | 0.00 | 85 | 1014.1 |
| 20260507061534 | 63 | 35 | 3.5 | 8.7 | 0.00 | 0.00 | 0.00 | 85 | 1013.9 |
| 20260507061042 | 63 | 26 | 4.3 | 10.4 | 0.00 | 0.00 | 0.00 | 85 | 1014.1 |
| 20260507060531 | 63 | 355 | 6.1 | 11.3 | 0.00 | 0.00 | 0.00 | 85 | 1013.9 |
| 20260507060024 | 63 | 24 | 7.0 | 11.3 | 0.00 | 0.00 | 0.00 | 85 | 1014.1 |
| 20260507055533 | 63 | 26 | 4.3 | 10.4 | 0.00 | 0.00 | 0.00 | 84 | 1013.9 |
| 20260507055042 | 63 | 360 | 6.1 | 13.9 | 0.00 | 0.00 | 0.00 | 84 | 1013.9 |
| 20260507054535 | 63 | 360 | 8.7 | 13.9 | 0.00 | 0.00 | 0.00 | 84 | 1013.9 |
| 20260507054023 | 63 | 15 | 6.1 | 9.6 | 0.00 | 0.00 | 0.00 | 84 | 1013.9 |
| 20260507053552 | 63 | 5 | 5.2 | 13.0 | 0.00 | 0.00 | 0.00 | 84 | 1013.5 |
| 20260507053022 | 63 | 40 | 7.8 | 13.0 | 0.00 | 0.00 | 0.00 | 84 | 1012.8 |
| 20260507052539 | 63 | 355 | 5.2 | 11.3 | 0.00 | 0.00 | 0.00 | 84 | 1013.8 |
| 20260507052048 | 63 | 339 | 6.1 | 10.4 | 0.00 | 0.00 | 0.00 | 84 | 1013.6 |
| 20260507051539 | 63 | 360 | 5.2 | 10.4 | 0.00 | 0.00 | 0.00 | 84 | 1013.3 |
| 20260507051028 | 63 | 349 | 4.3 | 10.4 | 0.00 | 0.00 | 0.00 | 83 | 1013.6 |
| 20260507050558 | 63 | 18 | 5.2 | 11.3 | 0.00 | 0.00 | 0.00 | 83 | 1013.7 |
| 20260507050057 | 63 | 349 | 6.1 | 13.0 | 0.00 | 0.00 | 0.00 | 83 | 1014.0 |
| 20260507045558 | 63 | 46 | 6.1 | 13.0 | 0.00 | 0.00 | 0.00 | 83 | 1013.6 |
| 20260507045108 | 63 | 10 | 4.3 | 11.3 | 0.00 | 0.00 | 0.00 | 83 | 1013.3 |
| 20260507044026 | 63 | 342 | 6.1 | 10.4 | 0.00 | 0.00 | 0.00 | 83 | 1013.4 |
| 20260507043634 | 63 | 15 | 5.2 | 12.2 | 0.00 | 0.00 | 0.00 | 83 | 1013.5 |
| 20260507043038 | 63 | 360 | 5.2 | 9.6 | 0.00 | 0.00 | 0.00 | 83 | 1013.4 |
| 20260507042548 | 63 | 24 | 5.2 | 12.2 | 0.00 | 0.00 | 0.00 | 83 | 1013.5 |
| 20260507041609 | 64 | 341 | 7.8 | 11.3 | 0.00 | 0.00 | 0.00 | 83 | 1013.4 |
| 20260507041058 | 64 | 5 | 6.1 | 12.2 | 0.00 | 0.00 | 0.00 | 83 | 1013.4 |
| 20260507040058 | 64 | 321 | 6.1 | 13.0 | 0.00 | 0.00 | 0.00 | 83 | 1013.4 |
| 20260507035541 | 64 | 32 | 5.2 | 10.4 | 0.00 | 0.00 | 0.00 | 83 | 1013.1 |
| 20260507034602 | 64 | 5 | 7.0 | 13.0 | 0.00 | 0.00 | 0.00 | 83 | 1013.3 |
| 20260507034032 | 64 | 24 | 7.0 | 13.0 | 0.00 | 0.00 | 0.00 | 83 | 1013.2 |
| 20260507033635 | 64 | 345 | 6.1 | 11.3 | 0.00 | 0.00 | 0.00 | 83 | 1013.1 |
| 20260507033044 | 64 | 5 | 6.1 | 13.0 | 0.00 | 0.00 | 0.00 | 83 | 1013.0 |
| 20260507032554 | 64 | 360 | 8.7 | 13.0 | 0.00 | 0.00 | 0.00 | 83 | 1013.0 |
| 20260507031615 | 64 | 347 | 7.0 | 13.0 | 0.00 | 0.00 | 0.00 | 83 | 1013.1 |
| 20260507031057 | 64 | 28 | 7.8 | 13.0 | 0.00 | 0.00 | 0.00 | 83 | 1012.7 |
| 20260507025605 | 64 | 313 | 7.8 | 13.9 | 0.00 | 0.00 | 0.00 | 83 | 1012.8 |
| 20260507025115 | 64 | 349 | 8.7 | 13.9 | 0.00 | 0.00 | 0.00 | 83 | 1012.7 |
| 20260507024534 | 64 | 306 | 7.0 | 13.9 | 0.00 | 0.00 | 0.00 | 83 | 1013.0 |
| 20260507024046 | 64 | 355 | 5.2 | 13.9 | 0.00 | 0.00 | 0.00 | 83 | 1012.3 |
| 20260507023553 | 64 | 343 | 8.7 | 12.2 | 0.00 | 0.00 | 0.00 | 83 | 1012.2 |
| 20260507023117 | 64 | 323 | 7.8 | 13.0 | 0.00 | 0.00 | 0.00 | 83 | 1012.1 |
| 20260507022531 | 64 | 340 | 7.0 | 13.0 | 0.00 | 0.00 | 0.00 | 83 | 1012.2 |
| 20260507022135 | 64 | 360 | 7.0 | 13.0 | 0.00 | 0.00 | 0.00 | 83 | 1012.0 |
| 20260507021539 | 64 | 340 | 9.6 | 13.0 | 0.00 | 0.00 | 0.00 | 83 | 1011.9 |
| 20260507021043 | 64 | 360 | 7.8 | 13.0 | 0.00 | 0.00 | 0.00 | 83 | 1012.0 |
| 20260507020112 | 64 | 346 | 6.1 | 12.2 | 0.00 | 0.00 | 0.00 | 83 | 1011.7 |
| 20260507015611 | 64 | 15 | 8.7 | 13.0 | 0.00 | 0.00 | 0.00 | 83 | 1011.7 |
| 20260507014610 | 65 | 338 | 9.6 | 13.0 | 0.00 | 0.00 | 0.00 | 83 | 1011.5 |
| 20260507014120 | 65 | 309 | 7.0 | 13.0 | 0.00 | 0.00 | 0.00 | 82 | 1011.6 |
| 20260507013607 | 65 | 360 | 4.3 | 10.4 | 0.00 | 0.00 | 0.00 | 82 | 1011.3 |
| 20260507013032 | 65 | 333 | 7.0 | 11.3 | 0.00 | 0.00 | 0.00 | 82 | 1011.4 |
| 20260507012541 | 65 | 322 | 6.1 | 11.3 | 0.00 | 0.00 | 0.00 | 82 | 1011.3 |
| 20260507011602 | 65 | 340 | 7.0 | 11.3 | 0.00 | 0.00 | 0.00 | 82 | 1010.9 |
| 20260507011112 | 65 | 355 | 5.2 | 11.3 | 0.00 | 0.00 | 0.00 | 82 | 1011.0 |
| 20260507010113 | 65 | 316 | 8.7 | 13.0 | 0.00 | 0.00 | 0.00 | 82 | 1010.7 |
| 20260507005556 | 65 | 323 | 7.8 | 11.3 | 0.00 | 0.00 | 0.00 | 82 | 1010.5 |
| 20260507004618 | 66 | 327 | 8.7 | 13.0 | 0.00 | 0.00 | 0.00 | 81 | 1010.5 |
| 20260507004032 | 66 | 330 | 5.2 | 13.0 | 0.00 | 0.00 | 0.00 | 81 | 1010.7 |
| 20260507003054 | 66 | 327 | 8.7 | 14.8 | 0.00 | 0.00 | 0.00 | 80 | 1010.3 |
| 20260507002543 | 67 | 325 | 7.8 | 13.9 | 0.00 | 0.00 | 0.00 | 80 | 1010.3 |
| 20260507001603 | 67 | 336 | 7.8 | 15.6 | 0.00 | 0.00 | 0.00 | 80 | 1010.2 |
| 20260507001113 | 67 | 350 | 9.6 | 15.6 | 0.00 | 0.00 | 0.00 | 80 | 1010.2 |
| 20260507000618 | 67 | 360 | 7.0 | 12.2 | 0.00 | 0.00 | 0.00 | 79 | 1010.2 |
| 20260507000045 | 68 | 355 | 7.0 | 13.0 | 0.00 | 0.00 | 0.00 | 79 | 1010.0 |
| 20260506235028 | 68 | 348 | 7.0 | 13.0 | 0.00 | 0.00 | 0.00 | 79 | 1010.1 |
| 20260506234033 | 68 | 5 | 10.4 | 15.6 | 0.00 | 0.00 | 0.00 | 78 | 1009.9 |
| 20260506233051 | 68 | 338 | 7.0 | 14.8 | 0.00 | 0.00 | 0.00 | 78 | 1009.8 |
| 20260506232602 | 68 | 340 | 7.8 | 14.8 | 0.00 | 0.00 | 0.00 | 78 | 1009.7 |
| 20260506232105 | 69 | 333 | 8.7 | 14.8 | 0.00 | 0.00 | 0.00 | 78 | 1009.6 |
| 20260506231531 | 69 | 345 | 8.7 | 14.8 | 0.00 | 0.00 | 0.00 | 78 | 1009.6 |
| 20260506231038 | 69 | 342 | 8.7 | 13.9 | 0.00 | 0.00 | 0.00 | 78 | 1009.5 |
| 20260506230105 | 69 | 346 | 8.7 | 13.0 | 0.00 | 0.00 | 0.00 | 78 | 1009.5 |
| 20260506225608 | 69 | 326 | 8.7 | 13.0 | 0.00 | 0.00 | 0.00 | 77 | 1009.6 |
| 20260506224616 | 69 | 329 | 9.6 | 16.5 | 0.00 | 0.00 | 0.00 | 78 | 1009.6 |
| 20260506224117 | 69 | 360 | 10.4 | 16.5 | 0.00 | 0.00 | 0.00 | 78 | 1009.6 |
| 20260506223606 | 69 | 355 | 8.7 | 14.8 | 0.00 | 0.00 | 0.00 | 78 | 1009.6 |
| 20260506223025 | 69 | 331 | 8.7 | 14.8 | 0.00 | 0.00 | 0.00 | 78 | 1009.5 |
| 20260506222535 | 69 | 360 | 10.4 | 14.8 | 0.00 | 0.00 | 0.00 | 79 | 1009.4 |
| 20260506221536 | 69 | 355 | 10.4 | 18.2 | 0.00 | 0.00 | 0.00 | 78 | 1009.6 |
| 20260506221050 | 69 | 338 | 11.3 | 18.2 | 0.00 | 0.00 | 0.00 | 78 | 1009.4 |
| 20260506220111 | 71 | 321 | 8.7 | 13.9 | 0.00 | 0.00 | 0.00 | 79 | 1009.5 |
| 20260506215554 | 71 | 330 | 9.6 | 16.5 | 0.00 | 0.00 | 0.00 | 78 | 1009.4 |
| 20260506214621 | 73 | 347 | 10.4 | 15.6 | 0.00 | 0.00 | 0.00 | 79 | 1009.2 |
| 20260506214103 | 74 | 317 | 8.7 | 13.9 | 0.00 | 0.00 | 0.00 | 80 | 1009.1 |
| 20260506213614 | 75 | 326 | 8.7 | 16.5 | 0.00 | 0.00 | 0.00 | 79 | 1009.1 |
| 20260506213033 | 76 | 346 | 10.4 | 16.5 | 0.00 | 0.00 | 0.00 | 79 | 1009.0 |
| 20260506212550 | 77 | 342 | 7.8 | 14.8 | 0.00 | 0.00 | 0.00 | 81 | 1008.8 |
| 20260506211550 | 78 | 9 | 8.7 | 13.0 | 0.00 | 0.00 | 0.00 | 80 | 1008.8 |
| 20260506211033 | 79 | 321 | 8.7 | 13.0 | 0.00 | 0.00 | 0.00 | 79 | 1008.8 |
| 20260506205611 | 80 | 331 | 4.3 | 9.6 | 0.00 | 0.00 | 0.00 | 80 | 1008.9 |
| 20260506205118 | 80 | 343 | 3.5 | 8.7 | 0.00 | 0.00 | 0.00 | 81 | 1008.7 |
| 20260506204535 | 80 | 355 | 6.1 | 9.6 | 0.00 | 0.00 | 0.00 | 80 | 1008.8 |
| 20260506204026 | 80 | 300 | 7.0 | 9.6 | 0.00 | 0.00 | 0.00 | 80 | 1008.8 |
| 20260506203637 | 80 | 335 | 4.3 | 7.0 | 0.00 | 0.00 | 0.00 | 79 | 1008.8 |
| 20260506203041 | 80 | 338 | 4.3 | 10.4 | 0.00 | 0.00 | 0.00 | 81 | 1008.7 |
| 20260506202551 | 80 | 341 | 7.0 | 10.4 | 0.00 | 0.00 | 0.00 | 80 | 1008.8 |
| 20260506201551 | 80 | 17 | 4.3 | 7.8 | 0.00 | 0.00 | 0.00 | 80 | 1008.7 |
| 20260506201101 | 80 | 320 | 3.5 | 7.8 | 0.00 | 0.00 | 0.00 | 80 | 1008.7 |
| 20260506200100 | 79 | 28 | 2.6 | 6.1 | 0.00 | 0.00 | 0.00 | 81 | 1008.8 |
| 20260506195547 | 79 | 58 | 2.6 | 6.1 | 0.00 | 0.00 | 0.00 | 82 | 1008.9 |
| 20260506194547 | 79 | 34 | 3.5 | 6.1 | 0.00 | 0.00 | 0.00 | 81 | 1009.1 |
| 20260506194030 | 78 | 106 | 2.6 | 7.0 | 0.00 | 0.00 | 0.00 | 82 | 1009.1 |
| 20260506193055 | 77 | 28 | 4.3 | 8.7 | 0.00 | 0.00 | 0.00 | 82 | 1009.1 |
| 20260506192702 | 77 | 18 | 6.1 | 8.7 | 0.00 | 0.00 | 0.00 | 82 | 1008.9 |
| 20260506192118 | 76 | 64 | 1.7 | 5.2 | 0.00 | 0.00 | 0.00 | 83 | 1008.8 |
| 20260506191534 | 76 | 57 | 2.6 | 7.8 | 0.00 | 0.00 | 0.00 | 84 | 1008.9 |
| 20260506191045 | 75 | 61 | 3.5 | 7.8 | 0.00 | 0.00 | 0.00 | 84 | 1009.0 |
| 20260506190106 | 74 | 22 | 3.5 | 5.2 | 0.00 | 0.00 | 0.00 | 84 | 1009.2 |
| 20260506185618 | 73 | 29 | 3.5 | 5.2 | 0.00 | 0.00 | 0.00 | 84 | 1009.4 |
| 20260506185121 | 73 | 16 | 3.5 | 7.8 | 0.00 | 0.00 | 0.00 | 83 | 1009.4 |
| 20260506184547 | 73 | 37 | 4.3 | 7.8 | 0.00 | 0.00 | 0.00 | 84 | 1009.6 |
| 20260506184032 | 72 | 44 | 2.6 | 9.6 | 0.00 | 0.00 | 0.00 | 85 | 1009.6 |
| 20260506183036 | 71 | 331 | 4.3 | 11.3 | 0.00 | 0.00 | 0.00 | 85 | 1009.5 |
| 20260506182547 | 71 | 13 | 7.8 | 11.3 | 0.00 | 0.00 | 0.00 | 84 | 1009.7 |
| 20260506181606 | 69 | 350 | 6.1 | 11.3 | 0.00 | 0.00 | 0.00 | 87 | 1009.9 |
| 20260506181118 | 68 | 323 | 5.2 | 11.3 | 0.00 | 0.00 | 0.00 | 86 | 1010.0 |
| 20260506180622 | 68 | 348 | 7.0 | 12.2 | 0.00 | 0.00 | 0.00 | 87 | 1010.1 |
| 20260506180047 | 67 | 360 | 7.8 | 13.0 | 0.00 | 0.00 | 0.00 | 87 | 1010.0 |
| 20260506175551 | 67 | 326 | 8.7 | 12.2 | 0.00 | 0.00 | 0.00 | 87 | 1010.2 |
| 20260506175101 | 67 | 319 | 7.8 | 17.4 | 0.00 | 0.00 | 0.00 | 87 | 1010.2 |
| 20260506174531 | 67 | 343 | 10.4 | 15.6 | 0.00 | 0.00 | 0.00 | 86 | 1010.4 |
| 20260506174035 | 67 | 355 | 9.6 | 14.8 | 0.00 | 0.00 | 0.00 | 86 | 1010.3 |
| 20260506173055 | 68 | 360 | 5.2 | 13.9 | 0.00 | 0.00 | 0.00 | 87 | 1010.6 |
| 20260506172606 | 69 | 349 | 9.6 | 13.9 | 0.00 | 0.00 | 0.00 | 86 | 1010.7 |
| 20260506171604 | 73 | 360 | 7.0 | 18.2 | 0.00 | 0.00 | 0.00 | 83 | 1010.9 |
| 20260506171114 | 78 | 308 | 8.7 | 18.2 | 0.00 | 0.00 | 0.00 | 83 | 1010.9 |
| 20260506170618 | 79 | 144 | 0.9 | 1.7 | 0.00 | 0.00 | 0.00 | 87 | 1010.6 |
| 20260506170023 | 79 | 144 | 0.0 | 1.7 | 0.00 | 0.00 | 0.00 | 87 | 1010.7 |
| 20260506165538 | 79 | 144 | 0.9 | 1.7 | 0.00 | 0.00 | 0.00 | 87 | 1010.7 |
| 20260506165138 | 79 | 136 | 0.9 | 1.7 | 0.00 | 0.00 | 0.00 | 87 | 1010.7 |
| 20260506164547 | 79 | 144 | 0.0 | 1.7 | 0.00 | 0.00 | 0.00 | 87 | 1010.6 |
| 20260506163631 | 79 | 140 | 0.0 | 0.0 | 0.00 | 0.00 | 0.00 | 87 | 1010.7 |
| 20260506163038 | 79 | 140 | 0.0 | 0.0 | 0.00 | 0.00 | 0.00 | 87 | 1010.8 |
| 20260506162543 | 79 | 140 | 0.0 | 0.0 | 0.00 | 0.00 | 0.00 | 87 | 1010.8 |
| 20260506161611 | 78 | 140 | 0.0 | 3.5 | 0.00 | 0.00 | 0.00 | 88 | 1010.8 |
| 20260506161053 | 78 | 140 | 2.6 | 3.5 | 0.00 | 0.00 | 0.00 | 88 | 1010.7 |
| 20260506160113 | 78 | 138 | 2.6 | 4.3 | 0.00 | 0.00 | 0.00 | 88 | 1010.1 |
| 20260506155526 | 78 | 194 | 0.0 | 0.9 | 0.00 | 0.00 | 0.00 | 88 | 1010.0 |
| 20260506154547 | 78 | 204 | 0.0 | 0.0 | 0.00 | 0.00 | 0.00 | 88 | 1009.7 |
| 20260506154035 | 78 | 204 | 0.0 | 0.0 | 0.00 | 0.00 | 0.00 | 88 | 1009.7 |
| 20260506153035 | 78 | 174 | 0.9 | 6.1 | 0.00 | 0.00 | 0.00 | 88 | 1009.7 |
| 20260506152546 | 78 | 173 | 1.7 | 6.1 | 0.00 | 0.00 | 0.00 | 88 | 1009.6 |
| 20260506151608 | 78 | 148 | 2.6 | 5.2 | 0.00 | 0.00 | 0.00 | 89 | 1009.5 |
| 20260506151110 | 78 | 148 | 2.6 | 5.2 | 0.00 | 0.00 | 0.00 | 89 | 1009.5 |
| 20260506150622 | 77 | 107 | 2.6 | 5.2 | 0.00 | 0.00 | 0.00 | 89 | 1009.4 |
| 20260506150036 | 77 | 107 | 2.6 | 4.3 | 0.00 | 0.00 | 0.00 | 89 | 1009.7 |
| 20260506145535 | 77 | 212 | 0.0 | 3.5 | 0.00 | 0.00 | 0.00 | 89 | 1009.7 |
| 20260506144534 | 77 | 228 | 0.9 | 1.7 | 0.00 | 0.00 | 0.00 | 89 | 1009.8 |
| 20260506144046 | 77 | 163 | 0.0 | 2.6 | 0.00 | 0.00 | 0.00 | 89 | 1009.7 |
| 20260506143105 | 77 | 164 | 3.5 | 6.1 | 0.00 | 0.00 | 0.00 | 89 | 1009.3 |
| 20260506142618 | 77 | 164 | 3.5 | 7.0 | 0.00 | 0.00 | 0.00 | 89 | 1009.2 |
| 20260506142121 | 77 | 150 | 2.6 | 6.1 | 0.00 | 0.00 | 0.00 | 89 | 1009.1 |
| 20260506141547 | 77 | 123 | 2.6 | 7.0 | 0.00 | 0.00 | 0.00 | 89 | 1009.0 |
| 20260506141101 | 77 | 140 | 3.5 | 7.8 | 0.00 | 0.00 | 0.00 | 90 | 1008.9 |
| 20260506135604 | 77 | 122 | 3.5 | 6.1 | 0.00 | 0.00 | 0.00 | 90 | 1008.8 |
| 20260506135115 | 76 | 135 | 3.5 | 6.1 | 0.00 | 0.00 | 0.00 | 90 | 1008.8 |
| 20260506134542 | 76 | 171 | 3.5 | 7.0 | 0.00 | 0.00 | 0.00 | 90 | 1008.9 |
| 20260506134046 | 76 | 163 | 4.3 | 7.8 | 0.00 | 0.00 | 0.00 | 90 | 1008.8 |
| 20260506133534 | 76 | 154 | 5.2 | 7.8 | 0.00 | 0.00 | 0.00 | 90 | 1008.9 |
| 20260506133139 | 76 | 148 | 5.2 | 8.7 | 0.00 | 0.00 | 0.00 | 90 | 1008.8 |
| 20260506132526 | 76 | 149 | 6.1 | 8.7 | 0.00 | 0.00 | 0.00 | 90 | 1008.8 |
| 20260506131549 | 76 | 150 | 4.3 | 7.8 | 0.00 | 0.00 | 0.00 | 90 | 1008.8 |
| 20260506131059 | 76 | 148 | 4.3 | 7.0 | 0.00 | 0.00 | 0.00 | 90 | 1008.8 |
| 20260506130558 | 76 | 147 | 3.5 | 4.3 | 0.00 | 0.00 | 0.00 | 90 | 1008.8 |
| 20260506130030 | 76 | 142 | 3.5 | 4.3 | 0.00 | 0.00 | 0.00 | 90 | 1008.8 |
| 20260506125531 | 76 | 138 | 3.5 | 5.2 | 0.00 | 0.00 | 0.00 | 90 | 1008.8 |
| 20260506124600 | 76 | 162 | 3.5 | 5.2 | 0.00 | 0.00 | 0.00 | 90 | 1008.7 |
| 20260506124043 | 76 | 153 | 3.5 | 6.1 | 0.00 | 0.00 | 0.00 | 90 | 1008.7 |
| 20260506123045 | 76 | 163 | 4.3 | 6.1 | 0.00 | 0.00 | 0.00 | 90 | 1008.7 |
| 20260506122600 | 76 | 162 | 4.3 | 5.2 | 0.00 | 0.00 | 0.00 | 90 | 1008.7 |
| 20260506122059 | 76 | 161 | 3.5 | 5.2 | 0.00 | 0.00 | 0.00 | 90 | 1008.6 |
| 20260506121529 | 76 | 151 | 3.5 | 5.2 | 0.00 | 0.00 | 0.00 | 90 | 1008.6 |
| 20260506121041 | 76 | 182 | 0.9 | 4.3 | 0.00 | 0.00 | 0.00 | 90 | 1008.6 |
| 20260506120059 | 76 | 182 | 2.6 | 4.3 | 0.00 | 0.00 | 0.00 | 90 | 1008.7 |
| 20260506115603 | 76 | 187 | 2.6 | 4.3 | 0.00 | 0.00 | 0.00 | 90 | 1008.6 |
| 20260506115115 | 76 | 188 | 2.6 | 4.3 | 0.00 | 0.00 | 0.00 | 90 | 1008.5 |
| 20260506114540 | 76 | 129 | 3.5 | 5.2 | 0.00 | 0.00 | 0.00 | 90 | 1008.5 |
| 20260506114048 | 76 | 163 | 3.5 | 5.2 | 0.00 | 0.00 | 0.00 | 90 | 1008.4 |
| 20260506113047 | 76 | 157 | 3.5 | 5.2 | 0.00 | 0.00 | 0.00 | 90 | 1008.2 |
| 20260506112559 | 76 | 179 | 2.6 | 4.3 | 0.00 | 0.00 | 0.00 | 90 | 1008.2 |
| 20260506112051 | 76 | 174 | 2.6 | 6.1 | 0.00 | 0.00 | 0.00 | 90 | 1008.2 |
| 20260506111533 | 76 | 167 | 4.3 | 6.1 | 0.00 | 0.00 | 0.00 | 90 | 1008.2 |
| 20260506111042 | 76 | 160 | 4.3 | 6.1 | 0.00 | 0.00 | 0.00 | 90 | 1008.1 |
| 20260506110100 | 76 | 180 | 1.7 | 5.2 | 0.00 | 0.00 | 0.00 | 90 | 1008.1 |
| 20260506105611 | 76 | 202 | 2.6 | 6.1 | 0.00 | 0.00 | 0.00 | 90 | 1008.1 |
| 20260506104543 | 76 | 187 | 4.3 | 7.0 | 0.00 | 0.00 | 0.00 | 90 | 1008.0 |
| 20260506104056 | 76 | 172 | 3.5 | 7.0 | 0.00 | 0.00 | 0.00 | 90 | 1008.0 |
| 20260506103119 | 76 | 188 | 3.5 | 7.0 | 0.00 | 0.00 | 0.00 | 90 | 1007.8 |
| 20260506102528 | 76 | 185 | 5.2 | 7.8 | 0.00 | 0.00 | 0.00 | 90 | 1007.7 |
| 20260506102121 | 76 | 185 | 3.5 | 7.8 | 0.00 | 0.00 | 0.00 | 90 | 1007.6 |
| 20260506101537 | 76 | 150 | 6.1 | 8.7 | 0.00 | 0.00 | 0.00 | 90 | 1007.5 |
| 20260506101047 | 76 | 172 | 4.3 | 8.7 | 0.00 | 0.00 | 0.00 | 90 | 1007.5 |
| 20260506100106 | 76 | 183 | 5.2 | 8.7 | 0.00 | 0.00 | 0.00 | 90 | 1007.2 |
| 20260506095548 | 76 | 186 | 5.2 | 10.4 | 0.00 | 0.00 | 0.00 | 90 | 1007.1 |
| 20260506094611 | 76 | 191 | 6.1 | 8.7 | 0.00 | 0.00 | 0.00 | 90 | 1007.1 |